Location: The Saddle
(36.8333°N, 80.3417°W)
Time: 17:09:16
(UTC-05:00)

A-11 Canister half - Pass Details

Date: 11 December 2023
Orbit: 1512 x 1687 km, 47.2° (Epoch: 29 February)

Event Time Altitude Azimuth Distance (km) Brightness Sun altitude
Rises 06:49:04 0° 297° (WNW) 4,880 - -7.1°
Exits shadow 06:51:42 - 291° (WNW) 4,158 10.6 -6.6°
Reaches altitude 10° 06:52:40 10° 288° (WNW) 3,911 10.5 -6.4°
Maximum altitude 07:00:59 31° 231° (SW) 2,647 10.0 -4.9°
Drops below altitude 10° 07:09:24 10° 175° (S) 3,940 11.6 -3.4°
Sets 07:13:04 0° 165° (SSE) 4,922 12.3 -2.8°
